This demonstration page uses our WeatherBlox Daily Observations layout. Learn more.

Left ArrowRight Arrow

41.55636, -103.73856

Hourly Observations for March 1, 2015

Temp ( °F °C ) Dew Point ( °F °C ) Humidity (%) Winds ( mph kmh ) Pressure ( in mb ) Visibility ( mi km ) Precip ( " mm )
12:53 am 00:53 Cloudy 23 -5 13 -10.6 65 65 ENE 6 9 30.21 1023 10 16 N/A
1:53 am 01:53 Mostly Cloudy 21 -6.1 12 -11.1 68 68 NE 8 13 30.24 1024 10 16 N/A
2:53 am 02:53 Cloudy 20 -6.7 10 -12.2 65 65 NNE 8 13 30.25 1024 10 16 N/A
3:53 am 03:53 Cloudy 19 -7.2 10 -12.2 68 68 NNE 8 13 30.27 1025 10 16 N/A
4:53 am 04:53 Cloudy 17 -8.3 10 -12.2 74 74 NNE 9 15 30.30 1026 10 16 N/A
5:19 am 05:19 Partly Cloudy 16 -8.9 10 -12.2 77 77 NE 5 7 30.45 1031 10 16 N/A
5:53 am 05:53 Mostly Cloudy 15 -9.4 9 -12.8 77 77 N N/A 30.36 1028 10 16 N/A
6:53 am 06:53 Cloudy 18 -7.8 12 -11.1 77 77 N N/A 30.37 1029 10 16 N/A
7:53 am 07:53 Mostly Sunny 20 -6.7 13 -10.6 74 74 WNW 3 6 30.40 1029 10 16 N/A
8:53 am 08:53 Partly Cloudy 23 -5 13 -10.6 65 65 W 8 13 30.41 1030 10 16 N/A
9:53 am 09:53 Cloudy 27 -2.8 13 -10.6 55 55 VRB 7 11 30.41 1030 10 16 N/A
10:53 am 10:53 Mostly Sunny 30 -1.1 13 -10.6 49 49 VRB 6 9 30.39 1029 10 16 N/A
11:53 am 11:53 Partly Cloudy 33 0.6 12 -11.1 42 42 NNW 15 24 30.36 1028 10 16 N/A
12:53 pm 12:53 Mostly Cloudy 33 0.6 12 -11.1 42 42 NNW 6 9 30.36 1028 10 16 N/A
1:53 pm 13:53 Cloudy 34 1.1 12 -11.1 40 40 VRB 5 7 30.34 1027 10 16 N/A
2:53 pm 14:53 Mostly Sunny 36 2.2 11 -11.7 35 35 NW 9 15 30.34 1028 10 16 N/A
3:53 pm 15:53 Sunny 34 1.1 10 -12.2 37 37 SW 7 11 30.35 1028 10 16 N/A
4:53 pm 16:53 Sunny 33 0.6 10 -12.2 38 38 SW 6 9 30.35 1028 10 16 N/A
5:53 pm 17:53 Clear 28 -2.2 10 -12.2 47 47 SSW 3 6 30.39 1029 10 16 N/A
6:53 pm 18:53 Clear 28 -2.2 12 -11.1 51 51 S 5 7 30.38 1029 10 16 N/A
7:53 pm 19:53 Clear 23 -5 11 -11.7 60 60 E 6 9 30.40 1030 10 16 N/A
8:53 pm 20:53 Cloudy 24 -4.4 11 -11.7 57 57 SE 6 9 30.40 1030 10 16 N/A
9:53 pm 21:53 Mostly Cloudy 25 -3.9 12 -11.1 58 58 E 7 11 30.38 1029 10 16 N/A
10:53 pm 22:53 Cloudy 25 -3.9 14 -10 63 63 ESE 8 13 30.33 1027 10 16 N/A
11:53 pm 23:53 Clear 26 -3.3 16 -8.9 66 66 ESE 7 11 30.30 1026 10 16 N/A

Powered by AerisWeather